Powrót do katalogu

COSMOS 1275 DEB

AktywnyPO
NORAD 12735·DEBRIS·🇷🇺 Russia

Wystrzelony Jun 4, 1981 z Plesetsk Cosmodrome

Loading…

Następne Przeloty (najbliższe 24 godziny)

TLE

ŚwieżeSource: Space-Track

Epoka: Sep 14, 2026, 06:14 UTC

1 12735U 81053CC  26257.25990500  .00000140  00000-0  13399-3 0  9990
2 12735  83.1449   0.7448 0101481 115.1104 274.6019 13.70910398246518

Śledź COSMOS 1275 DEB w czasie rzeczywistym z AllMySat

Download on the App Store